Le nostre stazioni meteo in Italia

Pubblicità
Il mio iltempo24.it
Marina Di Ginosa, Italia (16325): Temperatura & dewpoint: 30.06.2020 01:00:00 - 06.07.2020 01:00:00 (CEST)Marina Di Ginosa, Italia (16325): velocità del vento: 30.06.2020 01:00:00 - 06.07.2020 01:00:00 (CEST)Marina Di Ginosa, Italia (16325): direzione del vento: 30.06.2020 01:00:00 - 06.07.2020 01:00:00 (CEST)Marina Di Ginosa, Italia (16325): reduced air pressure: 30.06.2020 01:00:00 - 06.07.2020 01:00:00 (CEST)Marina Di Ginosa, Italia (16325): visibility: 30.06.2020 01:00:00 - 06.07.2020 01:00:00 (CEST)
Data & Tempo tt [°C] td [°C] ff [km/h] ff [kn] dd ppp [hPa] vv [km]
06.07.2020 01:00:00 - - - - - - -
06.07.2020 00:00:00 - - - - - - -
05.07.2020 23:00:00 - - - - - - -
05.07.2020 22:00:00 - - - - - - -
05.07.2020 21:00:00 - - - - - - -
05.07.2020 20:00:00 30,0 16,8 18 10 E 1009,3 20
05.07.2020 19:00:00 31,0 17,0 22 12 E - 10
05.07.2020 18:00:00 32,0 17,0 21 11 SSE - 10
05.07.2020 17:00:00 32,8 15,5 24 13 E 1009,5 20
05.07.2020 16:00:00 33,0 17,0 22 12 E - 10
05.07.2020 15:00:00 - - - - - - -
05.07.2020 14:00:00 - - - - - - -
05.07.2020 13:00:00 32,0 19,0 16 9 E - 10
05.07.2020 12:00:00 32,0 21,0 15 8 SSE - 10
05.07.2020 11:00:00 29,2 21,0 16 9 SSE 1011,3 20
05.07.2020 10:00:00 28,0 20,0 16 9 S - 10
05.07.2020 09:00:00 26,0 20,0 18 10 S - 10
05.07.2020 08:00:00 - - - - - - -
05.07.2020 07:00:00 - - - - - - -
05.07.2020 06:00:00 - - - - - - -
05.07.2020 05:00:00 - - - - - - -
05.07.2020 04:00:00 - - - - - - -
05.07.2020 03:00:00 - - - - - - -
05.07.2020 02:00:00 - - - - - - -
05.07.2020 01:00:00 - - - - - - -
05.07.2020 00:00:00 - - - - - - -
04.07.2020 23:00:00 - - - - - - -
04.07.2020 22:00:00 - - - - - - -
04.07.2020 21:00:00 - - - - - - -
04.07.2020 20:00:00 - - - - - - -
04.07.2020 19:00:00 - - - - - - -
04.07.2020 18:00:00 - - - - - - -
04.07.2020 17:00:00 - - - - - - -
04.07.2020 16:00:00 - - - - - - -
04.07.2020 15:00:00 - - - - - - -
04.07.2020 14:00:00 33,8 24,1 18 10 SSO 1009,5 20
04.07.2020 13:00:00 - - - - - - -
04.07.2020 12:00:00 35,0 25,0 18 10 SE - 10
04.07.2020 11:00:00 33,8 21,2 4 2 N 1011,3 20
04.07.2020 10:00:00 32,0 22,0 16 9 ONO - 10
04.07.2020 09:00:00 30,0 22,0 13 7 NO - 10
04.07.2020 08:00:00 27,2 21,9 15 8 NO 1011,2 20
04.07.2020 07:00:00 - - - - - - -
04.07.2020 06:00:00 - - - - - - -
04.07.2020 05:00:00 - - - - - - -
04.07.2020 04:00:00 - - - - - - -
04.07.2020 03:00:00 - - - - - - -
04.07.2020 02:00:00 - - - - - - -
04.07.2020 01:00:00 - - - - - - -
04.07.2020 00:00:00 - - - - - - -
03.07.2020 23:00:00 - - - - - - -
03.07.2020 22:00:00 - - - - - - -
03.07.2020 21:00:00 - - - - - - -
03.07.2020 20:00:00 31,0 20,3 15 8 N 1008,3 20
03.07.2020 19:00:00 32,0 21,0 24 13 N - 10
03.07.2020 18:00:00 34,0 20,0 5 3 S - 10
03.07.2020 17:00:00 35,0 23,0 8 4 S 1007,7 20
03.07.2020 16:00:00 34,0 28,0 15 8 S - 10
03.07.2020 15:00:00 34,0 27,0 21 11 SSO - 10
03.07.2020 14:00:00 34,8 26,4 13 7 S 1008,6 20
03.07.2020 13:00:00 35,0 27,0 13 7 S - 10
03.07.2020 12:00:00 35,0 24,0 11 6 S - 10
03.07.2020 11:00:00 34,0 24,0 11 6 S 1008,7 20
03.07.2020 10:00:00 33,0 22,0 8 4 SSE - 10
03.07.2020 09:00:00 30,0 22,0 8 4 O - 10
03.07.2020 08:00:00 28,2 22,2 8 4 NO 1008,7 20
03.07.2020 07:00:00 - - - - - - -
03.07.2020 06:00:00 - - - - - - -
03.07.2020 05:00:00 - - - - - - -
03.07.2020 04:00:00 - - - - - - -
03.07.2020 03:00:00 - - - - - - -
03.07.2020 02:00:00 - - - - - - -
03.07.2020 01:00:00 - - - - - - -
03.07.2020 00:00:00 - - - - - - -
02.07.2020 23:00:00 - - - - - - -
02.07.2020 22:00:00 - - - - - - -
02.07.2020 21:00:00 - - - - - - -
02.07.2020 20:00:00 30,0 22,4 9 5 O 1008,3 20
02.07.2020 19:00:00 30,0 -30,0 16 9 NO - 10
02.07.2020 18:00:00 31,0 25,0 11 6 OSO - 10
02.07.2020 17:00:00 32,2 27,9 11 6 SSO 1007,7 20
02.07.2020 16:00:00 35,0 27,0 15 8 SSO - 10
02.07.2020 15:00:00 36,0 25,0 9 5 S - 10
02.07.2020 14:00:00 35,0 22,7 8 4 S 1009,3 25
02.07.2020 13:00:00 35,0 21,0 9 5 S - 10
02.07.2020 12:00:00 34,0 23,0 5 3 SSE - 10
02.07.2020 11:00:00 32,0 22,7 8 4 SSE 1009,8 20
02.07.2020 10:00:00 33,0 20,0 8 4 ESE - 10
02.07.2020 09:00:00 31,0 19,0 5 3 O - 10
02.07.2020 08:00:00 27,8 20,4 8 4 NO 1009,9 20
02.07.2020 07:00:00 - - - - - - -
02.07.2020 06:00:00 - - - - - - -
02.07.2020 05:00:00 - - - - - - -
02.07.2020 04:00:00 - - - - - - -
02.07.2020 03:00:00 - - - - - - -
02.07.2020 02:00:00 - - - - - - -
02.07.2020 01:00:00 - - - - - - -
02.07.2020 00:00:00 - - - - - - -
01.07.2020 23:00:00 - - - - - - -
01.07.2020 22:00:00 - - - - - - -
01.07.2020 21:00:00 - - - - - - -
01.07.2020 20:00:00 28,6 25,6 5 3 SSO 1009,8 20
01.07.2020 19:00:00 29,0 25,0 13 7 SO - 10
01.07.2020 18:00:00 31,0 26,0 15 8 SSO - 10
01.07.2020 17:00:00 32,6 26,4 16 9 SSO 1010,0 25
01.07.2020 16:00:00 32,0 26,0 22 12 SSO - 10
01.07.2020 15:00:00 34,0 25,0 18 10 SSO - 10
01.07.2020 14:00:00 33,4 25,1 15 8 SSO 1010,7 20
01.07.2020 13:00:00 34,0 26,0 15 8 S - 10
01.07.2020 12:00:00 33,0 26,0 11 6 S - 10
01.07.2020 11:00:00 32,6 24,1 8 4 S 1011,3 15
01.07.2020 10:00:00 32,0 21,0 8 4 SSE - 10
01.07.2020 09:00:00 30,0 18,0 5 3 - - 10
01.07.2020 08:00:00 27,8 19,3 5 3 NO 1011,4 12
01.07.2020 07:00:00 - - - - - - -
01.07.2020 06:00:00 - - - - - - -
01.07.2020 05:00:00 - - - - - - -
01.07.2020 04:00:00 - - - - - - -
01.07.2020 03:00:00 - - - - - - -
01.07.2020 02:00:00 - - - - - - -
01.07.2020 01:00:00 - - - - - - -
01.07.2020 00:00:00 - - - - - - -
30.06.2020 23:00:00 - - - - - - -
30.06.2020 22:00:00 - - - - - - -
30.06.2020 21:00:00 - - - - - - -
30.06.2020 20:00:00 29,8 23,5 9 5 SO 1010,3 20
30.06.2020 19:00:00 31,0 23,0 8 4 SSO - 10
30.06.2020 18:00:00 33,0 24,0 11 6 SSO - 10
30.06.2020 17:00:00 33,4 -30,0 16 9 SSO 1010,6 25
30.06.2020 16:00:00 33,0 26,0 18 10 SSO - 10
30.06.2020 15:00:00 34,0 26,0 21 11 SSO - 10
30.06.2020 14:00:00 33,8 25,8 11 6 S 1011,1 25
30.06.2020 13:00:00 34,0 26,0 13 7 SSE - 10
30.06.2020 12:00:00 34,0 24,0 15 8 S - 10
30.06.2020 11:00:00 35,8 18,4 4 2 N 1011,4 25
30.06.2020 10:00:00 33,0 18,0 11 6 O - 10
30.06.2020 09:00:00 30,0 18,0 11 6 O - 10
30.06.2020 08:00:00 26,4 18,3 11 6 ONO 1011,0 25
30.06.2020 07:00:00 - - - - - - -
30.06.2020 06:00:00 - - - - - - -
30.06.2020 05:00:00 - - - - - - -
30.06.2020 04:00:00 - - - - - - -
30.06.2020 03:00:00 - - - - - - -
30.06.2020 02:00:00 - - - - - - -
30.06.2020 01:00:00 - - - - - - -

tt = Temperatura
td = dewpoint
ff = velocità del vento
dd = direzione del vento
ppp = reduced air pressure
vv = visibility

Stazioni seguenti

WeatherPro
AMSI
MeteoEarth